Year,Month,Day,Hour,Minute,Value (Times are PST for temperature in C)
2014,07,07,00,00,15.90
2014,07,07,00,01,15.90
2014,07,07,00,02,15.90
2014,07,07,00,03,15.90
2014,07,07,00,04,15.90
2014,07,07,00,05,15.90
2014,07,07,00,06,15.90
2014,07,07,00,07,15.80
2014,07,07,00,08,15.80
2014,07,07,00,09,15.80
2014,07,07,00,10,15.80
2014,07,07,00,11,15.80
2014,07,07,00,12,15.80
2014,07,07,00,13,15.70
2014,07,07,00,14,15.70
2014,07,07,00,15,15.70
2014,07,07,00,16,15.70
2014,07,07,00,17,15.70
2014,07,07,00,18,15.70
2014,07,07,00,19,15.70
2014,07,07,00,20,15.70
2014,07,07,00,21,15.60
2014,07,07,00,22,15.60
2014,07,07,00,23,15.60
2014,07,07,00,24,15.60
2014,07,07,00,25,15.60
2014,07,07,00,26,15.60
2014,07,07,00,27,15.50
2014,07,07,00,28,15.50
2014,07,07,00,29,15.50
2014,07,07,00,30,15.40
2014,07,07,00,31,15.40
2014,07,07,00,32,15.40
2014,07,07,00,33,15.40
2014,07,07,00,34,15.40
2014,07,07,00,35,15.40
2014,07,07,00,36,15.40
2014,07,07,00,37,15.40
2014,07,07,00,38,15.40
2014,07,07,00,39,15.40
2014,07,07,00,40,15.40
2014,07,07,00,41,15.30
2014,07,07,00,42,15.30
2014,07,07,00,43,15.30
2014,07,07,00,44,15.40
2014,07,07,00,45,15.40
2014,07,07,00,46,15.40
2014,07,07,00,47,15.40
2014,07,07,00,48,15.40
2014,07,07,00,49,15.40
2014,07,07,00,50,15.40
2014,07,07,00,51,15.40
2014,07,07,00,52,15.40
2014,07,07,00,53,15.40
2014,07,07,00,54,15.40
2014,07,07,00,55,15.40
2014,07,07,00,56,15.40
2014,07,07,00,57,15.40
2014,07,07,00,58,15.40
2014,07,07,00,59,15.30
2014,07,07,01,00,15.30
2014,07,07,01,01,15.30
2014,07,07,01,02,15.30
2014,07,07,01,03,15.30
2014,07,07,01,04,15.20
2014,07,07,01,05,15.20
2014,07,07,01,06,15.20
2014,07,07,01,07,15.20
2014,07,07,01,08,15.20
2014,07,07,01,09,15.20
2014,07,07,01,10,15.20
2014,07,07,01,11,15.20
2014,07,07,01,12,15.10
2014,07,07,01,13,15.10
2014,07,07,01,14,15.10
2014,07,07,01,15,15.10
2014,07,07,01,16,15.10
2014,07,07,01,17,15.10
2014,07,07,01,18,15.10
2014,07,07,01,19,15.10
2014,07,07,01,20,15.00
2014,07,07,01,21,15.00
2014,07,07,01,22,15.00
2014,07,07,01,23,15.00
2014,07,07,01,24,15.00
2014,07,07,01,25,15.00
2014,07,07,01,26,15.00
2014,07,07,01,27,14.90
2014,07,07,01,28,14.90
2014,07,07,01,29,14.90
2014,07,07,01,30,14.90
2014,07,07,01,31,14.90
2014,07,07,01,32,14.90
2014,07,07,01,33,14.90
2014,07,07,01,34,14.90
2014,07,07,01,35,14.90
2014,07,07,01,36,14.90
2014,07,07,01,37,14.90
2014,07,07,01,38,14.90
2014,07,07,01,39,14.90
2014,07,07,01,40,14.90
2014,07,07,01,41,14.80
2014,07,07,01,42,14.90
2014,07,07,01,43,14.90
2014,07,07,01,44,14.90
2014,07,07,01,45,14.90
2014,07,07,01,46,14.90
2014,07,07,01,47,14.90
2014,07,07,01,48,14.90
2014,07,07,01,49,14.90
2014,07,07,01,50,14.90
2014,07,07,01,51,15.00
2014,07,07,01,52,15.00
2014,07,07,01,53,15.00
2014,07,07,01,54,15.00
2014,07,07,01,55,15.10
2014,07,07,01,56,15.10
2014,07,07,01,57,15.10
2014,07,07,01,58,15.00
2014,07,07,01,59,15.00
2014,07,07,02,00,15.00
2014,07,07,02,01,15.00
2014,07,07,02,02,15.00
2014,07,07,02,03,15.00
2014,07,07,02,04,15.00
2014,07,07,02,05,15.00
2014,07,07,02,06,15.00
2014,07,07,02,07,15.00
2014,07,07,02,08,15.10
2014,07,07,02,09,15.10
2014,07,07,02,10,15.10
2014,07,07,02,11,15.10
2014,07,07,02,12,15.10
2014,07,07,02,13,15.10
2014,07,07,02,14,15.10
2014,07,07,02,15,15.10
2014,07,07,02,16,15.10
2014,07,07,02,17,15.10
2014,07,07,02,18,15.10
2014,07,07,02,19,15.10
2014,07,07,02,20,15.10
2014,07,07,02,21,15.10
2014,07,07,02,22,15.10
2014,07,07,02,23,15.10
2014,07,07,02,24,15.10
2014,07,07,02,25,15.10
2014,07,07,02,26,15.10
2014,07,07,02,27,15.10
2014,07,07,02,28,15.20
2014,07,07,02,29,15.20
2014,07,07,02,30,15.20
2014,07,07,02,31,15.20
2014,07,07,02,32,15.20
2014,07,07,02,33,15.20
2014,07,07,02,34,15.20
2014,07,07,02,35,15.20
2014,07,07,02,36,15.20
2014,07,07,02,37,15.10
2014,07,07,02,38,15.10
2014,07,07,02,39,15.10
2014,07,07,02,40,15.10
2014,07,07,02,41,15.10
2014,07,07,02,42,15.10
2014,07,07,02,43,15.10
2014,07,07,02,44,15.10
2014,07,07,02,45,15.10
2014,07,07,02,46,15.10
2014,07,07,02,47,15.10
2014,07,07,02,48,15.10
2014,07,07,02,49,15.10
2014,07,07,02,50,15.10
2014,07,07,02,51,15.10
2014,07,07,02,52,15.10
2014,07,07,02,53,15.10
2014,07,07,02,54,15.10
2014,07,07,02,55,15.10
2014,07,07,02,56,15.10
2014,07,07,02,57,15.10
2014,07,07,02,58,15.10
2014,07,07,02,59,15.10
2014,07,07,03,00,15.10
2014,07,07,03,01,15.10
2014,07,07,03,02,15.10
2014,07,07,03,03,15.10
2014,07,07,03,04,15.10
2014,07,07,03,05,15.10
2014,07,07,03,06,15.20
2014,07,07,03,07,15.20
2014,07,07,03,08,15.20
2014,07,07,03,09,15.20
2014,07,07,03,10,15.20
2014,07,07,03,11,15.20
2014,07,07,03,12,15.20
2014,07,07,03,13,15.20
2014,07,07,03,14,15.20
2014,07,07,03,15,15.20
2014,07,07,03,16,15.20
2014,07,07,03,17,15.20
2014,07,07,03,18,15.20
2014,07,07,03,19,15.20
2014,07,07,03,20,15.20
2014,07,07,03,21,15.20
2014,07,07,03,22,15.20
2014,07,07,03,23,15.20
2014,07,07,03,24,15.20
2014,07,07,03,25,15.20
2014,07,07,03,26,15.20
2014,07,07,03,27,15.10
2014,07,07,03,28,15.10
2014,07,07,03,29,15.10
2014,07,07,03,30,15.10
2014,07,07,03,31,15.10
2014,07,07,03,32,15.10
2014,07,07,03,33,15.20
2014,07,07,03,34,15.20
2014,07,07,03,35,15.20
2014,07,07,03,36,15.20
2014,07,07,03,37,15.20
2014,07,07,03,38,15.20
2014,07,07,03,39,15.30
2014,07,07,03,40,15.30
2014,07,07,03,41,15.30
2014,07,07,03,42,15.30
2014,07,07,03,43,15.30
2014,07,07,03,44,15.40
2014,07,07,03,45,15.40
2014,07,07,03,46,15.40
2014,07,07,03,47,15.30
2014,07,07,03,48,15.30
2014,07,07,03,49,15.20
2014,07,07,03,50,15.20
2014,07,07,03,51,15.20
2014,07,07,03,52,15.10
2014,07,07,03,53,15.10
2014,07,07,03,54,15.10
2014,07,07,03,55,15.10
2014,07,07,03,56,15.00
2014,07,07,03,57,15.00
2014,07,07,03,58,15.00
2014,07,07,03,59,14.90
2014,07,07,04,00,14.90
2014,07,07,04,01,14.90
2014,07,07,04,02,14.80
2014,07,07,04,03,14.80
2014,07,07,04,04,14.60
2014,07,07,04,05,14.50
2014,07,07,04,06,14.40
2014,07,07,04,07,14.30
2014,07,07,04,08,14.20
2014,07,07,04,09,14.10
2014,07,07,04,10,14.00
2014,07,07,04,11,14.00
2014,07,07,04,12,13.90
2014,07,07,04,13,13.80
2014,07,07,04,14,13.70
2014,07,07,04,15,13.70
2014,07,07,04,16,13.60
2014,07,07,04,17,13.50
2014,07,07,04,18,13.50
2014,07,07,04,19,13.40
2014,07,07,04,20,13.30
2014,07,07,04,21,13.30
2014,07,07,04,22,13.30
2014,07,07,04,23,13.20
2014,07,07,04,24,13.20
2014,07,07,04,25,13.20
2014,07,07,04,26,13.20
2014,07,07,04,27,13.10
2014,07,07,04,28,13.10
2014,07,07,04,29,13.10
2014,07,07,04,30,13.10
2014,07,07,04,31,13.10
2014,07,07,04,32,13.10
2014,07,07,04,33,13.00
2014,07,07,04,34,13.00
2014,07,07,04,35,13.00
2014,07,07,04,36,13.00
2014,07,07,04,37,13.00
2014,07,07,04,38,13.00
2014,07,07,04,39,13.00
2014,07,07,04,40,13.00
2014,07,07,04,41,13.00
2014,07,07,04,42,13.00
2014,07,07,04,43,13.00
2014,07,07,04,44,13.00
2014,07,07,04,45,13.00
2014,07,07,04,46,13.00
2014,07,07,04,47,13.10
2014,07,07,04,48,13.10
2014,07,07,04,49,13.10
2014,07,07,04,50,13.10
2014,07,07,04,51,13.10
2014,07,07,04,52,13.10
2014,07,07,04,53,13.10
2014,07,07,04,54,13.10
2014,07,07,04,55,13.20
2014,07,07,04,56,13.20
2014,07,07,04,57,13.20
2014,07,07,04,58,13.20
2014,07,07,04,59,13.20
2014,07,07,05,00,13.20
2014,07,07,05,01,13.20
2014,07,07,05,02,13.20
2014,07,07,05,03,13.20
2014,07,07,05,04,13.20
2014,07,07,05,05,13.20
2014,07,07,05,06,13.20
2014,07,07,05,07,13.20
2014,07,07,05,08,13.20
2014,07,07,05,09,13.20
2014,07,07,05,10,13.30
2014,07,07,05,11,13.30
2014,07,07,05,12,13.30
2014,07,07,05,13,13.30
2014,07,07,05,14,13.30
2014,07,07,05,15,13.30
2014,07,07,05,16,13.30
2014,07,07,05,17,13.30
2014,07,07,05,18,13.30
2014,07,07,05,19,13.30
2014,07,07,05,20,13.30
2014,07,07,05,21,13.30
2014,07,07,05,22,13.30
2014,07,07,05,23,13.30
2014,07,07,05,24,13.40
2014,07,07,05,25,13.40
2014,07,07,05,26,13.40
2014,07,07,05,27,13.40
2014,07,07,05,28,13.40
2014,07,07,05,29,13.40
2014,07,07,05,30,13.40
2014,07,07,05,31,13.40
2014,07,07,05,32,13.50
2014,07,07,05,33,13.50
2014,07,07,05,34,13.50
2014,07,07,05,35,13.50
2014,07,07,05,36,13.50
2014,07,07,05,37,13.50
2014,07,07,05,38,13.50
2014,07,07,05,39,13.50
2014,07,07,05,40,13.60
2014,07,07,05,41,13.60
2014,07,07,05,42,13.60
2014,07,07,05,43,13.60
2014,07,07,05,44,13.60
2014,07,07,05,45,13.60
2014,07,07,05,46,13.60
2014,07,07,05,47,13.60
2014,07,07,05,48,13.60
2014,07,07,05,49,13.60
2014,07,07,05,50,13.60
2014,07,07,05,51,13.70
2014,07,07,05,52,13.70
2014,07,07,05,53,13.70
2014,07,07,05,54,13.70
2014,07,07,05,55,13.70
2014,07,07,05,56,13.70
2014,07,07,05,57,13.70
2014,07,07,05,58,13.70
2014,07,07,05,59,13.70
2014,07,07,06,00,13.80
2014,07,07,06,01,13.80
2014,07,07,06,02,13.80
2014,07,07,06,03,13.80
2014,07,07,06,04,13.80
2014,07,07,06,05,13.80
2014,07,07,06,06,13.80
2014,07,07,06,07,13.90
2014,07,07,06,08,13.90
2014,07,07,06,09,13.90
2014,07,07,06,10,13.90
2014,07,07,06,11,13.90
2014,07,07,06,12,13.90
2014,07,07,06,13,13.90
2014,07,07,06,14,13.90
2014,07,07,06,15,14.00
2014,07,07,06,16,14.00
2014,07,07,06,17,14.00
2014,07,07,06,18,14.00
2014,07,07,06,19,14.00
2014,07,07,06,20,14.00
2014,07,07,06,21,14.10
2014,07,07,06,22,14.10
2014,07,07,06,23,14.10
2014,07,07,06,24,14.10
2014,07,07,06,25,14.10
2014,07,07,06,26,14.10
2014,07,07,06,27,14.10
2014,07,07,06,28,14.10
2014,07,07,06,29,14.10
2014,07,07,06,30,14.10
2014,07,07,06,31,14.20
2014,07,07,06,32,14.20
2014,07,07,06,33,14.20
2014,07,07,06,34,14.20
2014,07,07,06,35,14.20
2014,07,07,06,36,14.20
2014,07,07,06,37,14.20
2014,07,07,06,38,14.20
2014,07,07,06,39,14.20
2014,07,07,06,40,14.20
2014,07,07,06,41,14.20
2014,07,07,06,42,14.20
2014,07,07,06,43,14.20
2014,07,07,06,44,14.30
2014,07,07,06,45,14.30
2014,07,07,06,46,14.30
2014,07,07,06,47,14.30
2014,07,07,06,48,14.30
2014,07,07,06,49,14.30
2014,07,07,06,50,14.30
2014,07,07,06,51,14.30
2014,07,07,06,52,14.30
2014,07,07,06,53,14.30
2014,07,07,06,54,14.30
2014,07,07,06,55,14.30
2014,07,07,06,56,14.30
2014,07,07,06,57,14.30
2014,07,07,06,58,14.30
2014,07,07,06,59,14.30
2014,07,07,07,00,14.30
2014,07,07,07,01,14.30
2014,07,07,07,02,14.30
2014,07,07,07,03,14.40
2014,07,07,07,04,14.40
2014,07,07,07,05,14.40
2014,07,07,07,06,14.40
2014,07,07,07,07,14.40
2014,07,07,07,08,14.40
2014,07,07,07,09,14.40
2014,07,07,07,10,14.40
2014,07,07,07,11,14.40
2014,07,07,07,12,14.40
2014,07,07,07,13,14.40
2014,07,07,07,14,14.40
2014,07,07,07,15,14.40
2014,07,07,07,16,14.40
2014,07,07,07,17,14.40
2014,07,07,07,18,14.40
2014,07,07,07,19,14.40
2014,07,07,07,20,14.40
2014,07,07,07,21,14.40
2014,07,07,07,22,14.40
2014,07,07,07,23,14.40
2014,07,07,07,24,14.40
2014,07,07,07,25,14.40
2014,07,07,07,26,14.40
2014,07,07,07,27,14.40
2014,07,07,07,28,14.40
2014,07,07,07,29,14.40
2014,07,07,07,30,14.40
2014,07,07,07,31,14.40
2014,07,07,07,32,14.40
2014,07,07,07,33,14.40
2014,07,07,07,34,14.40
2014,07,07,07,35,14.40
2014,07,07,07,36,14.40
2014,07,07,07,37,14.40
2014,07,07,07,38,14.40
2014,07,07,07,39,14.40
2014,07,07,07,40,14.40
2014,07,07,07,41,14.40
2014,07,07,07,42,14.40
2014,07,07,07,43,14.40
2014,07,07,07,44,14.40
2014,07,07,07,45,14.40
2014,07,07,07,46,14.40
2014,07,07,07,47,14.40
2014,07,07,07,48,14.40
2014,07,07,07,49,14.40
2014,07,07,07,50,14.40
2014,07,07,07,51,14.40
2014,07,07,07,52,14.40
2014,07,07,07,53,14.40
2014,07,07,07,54,14.40
2014,07,07,07,55,14.40
2014,07,07,07,56,14.40
2014,07,07,07,57,14.40
2014,07,07,07,58,14.40
2014,07,07,07,59,14.40
2014,07,07,08,00,14.40
2014,07,07,08,01,14.40
2014,07,07,08,02,14.40
2014,07,07,08,03,14.40
2014,07,07,08,04,14.40
2014,07,07,08,05,14.40
2014,07,07,08,06,14.40
2014,07,07,08,07,14.40
2014,07,07,08,08,14.40
2014,07,07,08,09,14.40
2014,07,07,08,10,14.40
2014,07,07,08,11,14.30
2014,07,07,08,12,14.30
2014,07,07,08,13,14.30
2014,07,07,08,14,14.30
2014,07,07,08,15,14.30
2014,07,07,08,16,14.30
2014,07,07,08,17,14.30
2014,07,07,08,18,14.20
2014,07,07,08,19,14.20
2014,07,07,08,20,14.20
2014,07,07,08,21,14.20
2014,07,07,08,22,14.20
2014,07,07,08,23,14.20
2014,07,07,08,24,14.20
2014,07,07,08,25,14.20
2014,07,07,08,26,14.10
2014,07,07,08,27,14.10
2014,07,07,08,28,14.10
2014,07,07,08,29,14.10
2014,07,07,08,30,14.10
2014,07,07,08,31,14.00
2014,07,07,08,32,14.00
2014,07,07,08,33,13.90
2014,07,07,08,34,13.90
2014,07,07,08,35,13.90
2014,07,07,08,36,13.90
2014,07,07,08,37,13.80
2014,07,07,08,38,13.80
2014,07,07,08,39,13.80
2014,07,07,08,40,13.80
2014,07,07,08,41,13.80
2014,07,07,08,42,13.70
2014,07,07,08,43,13.70
2014,07,07,08,44,13.70
2014,07,07,08,45,13.70
2014,07,07,08,46,13.70
2014,07,07,08,47,13.70
2014,07,07,08,48,13.70
2014,07,07,08,49,13.70
2014,07,07,08,50,13.70
2014,07,07,08,51,13.70
2014,07,07,08,52,13.70
2014,07,07,08,53,13.70
2014,07,07,08,54,13.70
2014,07,07,08,55,13.70
2014,07,07,08,56,13.70
2014,07,07,08,57,13.70
2014,07,07,08,58,13.70
2014,07,07,08,59,13.70
2014,07,07,09,00,13.70
2014,07,07,09,01,13.80
2014,07,07,09,02,13.80
2014,07,07,09,03,13.80
2014,07,07,09,04,13.80
2014,07,07,09,05,13.80
2014,07,07,09,06,13.80
2014,07,07,09,07,13.80
2014,07,07,09,08,13.80
2014,07,07,09,09,13.80
2014,07,07,09,10,13.80
2014,07,07,09,11,13.90
2014,07,07,09,12,13.80
2014,07,07,09,13,13.90
2014,07,07,09,14,13.90
2014,07,07,09,15,13.90
2014,07,07,09,16,13.90
2014,07,07,09,17,13.90
2014,07,07,09,18,13.90
2014,07,07,09,19,13.90
2014,07,07,09,20,13.80
2014,07,07,09,21,13.90
2014,07,07,09,22,13.90
2014,07,07,09,23,13.90
2014,07,07,09,24,13.90
2014,07,07,09,25,13.90
2014,07,07,09,26,13.90
2014,07,07,09,27,13.90
2014,07,07,09,28,13.80
2014,07,07,09,29,13.80
2014,07,07,09,30,13.80
2014,07,07,09,31,13.80
2014,07,07,09,32,13.80
2014,07,07,09,33,13.80
2014,07,07,09,34,13.90
2014,07,07,09,35,13.90
2014,07,07,09,36,13.90
2014,07,07,09,37,13.90
2014,07,07,09,38,13.90
2014,07,07,09,39,14.00
2014,07,07,09,40,14.00
2014,07,07,09,41,14.10
2014,07,07,09,42,14.10
2014,07,07,09,43,14.10
2014,07,07,09,44,14.20
2014,07,07,09,45,14.30
2014,07,07,09,46,14.30
2014,07,07,09,47,14.40
2014,07,07,09,48,14.40
2014,07,07,09,49,14.40
2014,07,07,09,50,14.50
2014,07,07,09,51,14.50
2014,07,07,09,52,14.60
2014,07,07,09,53,14.60
2014,07,07,09,54,14.60
2014,07,07,09,55,14.60
2014,07,07,09,56,14.60
2014,07,07,09,57,14.60
2014,07,07,09,58,14.60
2014,07,07,09,59,14.60
2014,07,07,10,00,14.60
2014,07,07,10,01,14.60
2014,07,07,10,02,14.60
2014,07,07,10,03,14.60
2014,07,07,10,04,14.60
2014,07,07,10,05,14.50
2014,07,07,10,06,14.60
2014,07,07,10,07,14.60
2014,07,07,10,08,14.60
2014,07,07,10,09,14.60
2014,07,07,10,10,14.70
2014,07,07,10,11,14.70
2014,07,07,10,12,14.70
2014,07,07,10,13,14.70
2014,07,07,10,14,14.70
2014,07,07,10,15,14.70
2014,07,07,10,16,14.70
2014,07,07,10,17,14.70
2014,07,07,10,18,14.70
2014,07,07,10,19,14.70
2014,07,07,10,20,14.70
2014,07,07,10,21,14.70
2014,07,07,10,22,14.70
2014,07,07,10,23,14.70
2014,07,07,10,24,14.80
2014,07,07,10,25,14.80
2014,07,07,10,26,14.80
2014,07,07,10,27,14.80
2014,07,07,10,28,14.80
2014,07,07,10,29,14.90
2014,07,07,10,30,14.90
2014,07,07,10,31,14.90
2014,07,07,10,32,14.80
2014,07,07,10,33,14.80
2014,07,07,10,34,14.80
2014,07,07,10,35,14.90
2014,07,07,10,36,14.90
2014,07,07,10,37,15.00
2014,07,07,10,38,15.00
2014,07,07,10,39,15.10
2014,07,07,10,40,15.10
2014,07,07,10,41,15.30
2014,07,07,10,42,15.40
2014,07,07,10,43,15.40
2014,07,07,10,44,15.50
2014,07,07,10,45,15.60
2014,07,07,10,46,15.60
2014,07,07,10,47,15.60
2014,07,07,10,48,15.60
2014,07,07,10,49,15.60
2014,07,07,10,50,15.60
2014,07,07,10,51,15.70
2014,07,07,10,52,15.70
2014,07,07,10,53,15.70
2014,07,07,10,54,15.70
2014,07,07,10,55,15.70
2014,07,07,10,56,15.70
2014,07,07,10,57,15.60
2014,07,07,10,58,15.60
2014,07,07,10,59,15.60
2014,07,07,11,00,15.60
2014,07,07,11,01,15.50
2014,07,07,11,02,15.50
2014,07,07,11,03,15.50
2014,07,07,11,04,15.50
2014,07,07,11,05,15.50
2014,07,07,11,06,15.50
2014,07,07,11,07,15.50
2014,07,07,11,08,15.50
2014,07,07,11,09,15.60
2014,07,07,11,10,15.60
2014,07,07,11,11,15.70
2014,07,07,11,12,15.70
2014,07,07,11,13,15.70
2014,07,07,11,14,15.70
2014,07,07,11,15,15.70
2014,07,07,11,16,15.70
2014,07,07,11,17,15.70
2014,07,07,11,18,15.70
2014,07,07,11,19,15.70
2014,07,07,11,20,15.70
2014,07,07,11,21,15.60
2014,07,07,11,22,15.60
2014,07,07,11,23,15.50
2014,07,07,11,24,15.40
2014,07,07,11,25,15.40
2014,07,07,11,26,15.40
2014,07,07,11,27,15.30
2014,07,07,11,28,15.30
2014,07,07,11,29,15.40
2014,07,07,11,30,15.40
2014,07,07,11,31,15.40
2014,07,07,11,32,15.50
2014,07,07,11,33,15.60
2014,07,07,11,34,15.60
2014,07,07,11,35,15.60
2014,07,07,11,36,15.70
2014,07,07,11,37,15.70
2014,07,07,11,38,15.70
2014,07,07,11,39,15.70
2014,07,07,11,40,15.60
2014,07,07,11,41,15.60
2014,07,07,11,42,15.70
2014,07,07,11,43,15.70
2014,07,07,11,44,15.70
2014,07,07,11,45,15.80
2014,07,07,11,46,15.80
2014,07,07,11,47,15.90
2014,07,07,11,48,15.90
2014,07,07,11,49,15.90
2014,07,07,11,50,15.90
2014,07,07,11,51,15.90
2014,07,07,11,52,15.90
2014,07,07,11,53,16.00
2014,07,07,11,54,16.00
2014,07,07,11,55,16.10
2014,07,07,11,56,16.20
2014,07,07,11,57,16.30
2014,07,07,11,58,16.30
2014,07,07,11,59,16.40
2014,07,07,12,00,16.50
2014,07,07,12,01,16.60
2014,07,07,12,02,16.60
2014,07,07,12,03,16.60
2014,07,07,12,04,16.60
2014,07,07,12,05,16.60
2014,07,07,12,06,16.60
2014,07,07,12,07,16.60
2014,07,07,12,08,16.60
2014,07,07,12,09,16.60
2014,07,07,12,10,16.70
2014,07,07,12,11,16.70
2014,07,07,12,12,16.70
2014,07,07,12,13,16.70
2014,07,07,12,14,16.70
2014,07,07,12,15,16.70
2014,07,07,12,16,16.70
2014,07,07,12,17,16.70
2014,07,07,12,18,16.60
2014,07,07,12,19,16.60
2014,07,07,12,20,16.50
2014,07,07,12,21,16.40
2014,07,07,12,22,16.40
2014,07,07,12,23,16.40
2014,07,07,12,24,16.40
2014,07,07,12,25,16.40
2014,07,07,12,26,16.40
2014,07,07,12,27,16.40
2014,07,07,12,28,16.50
2014,07,07,12,29,16.50
2014,07,07,12,30,16.60
2014,07,07,12,31,16.70
2014,07,07,12,32,16.70
2014,07,07,12,33,16.80
2014,07,07,12,34,16.80
2014,07,07,12,35,16.70
2014,07,07,12,36,16.60
2014,07,07,12,37,16.50
2014,07,07,12,38,16.40
2014,07,07,12,39,16.40
2014,07,07,12,40,16.40
2014,07,07,12,41,16.50
2014,07,07,12,42,16.60
2014,07,07,12,43,16.70
2014,07,07,12,44,16.80
2014,07,07,12,45,16.90
2014,07,07,12,46,17.00
2014,07,07,12,47,17.10
2014,07,07,12,48,17.20
2014,07,07,12,49,17.20
2014,07,07,12,50,17.20
2014,07,07,12,51,17.00
2014,07,07,12,52,16.90
2014,07,07,12,53,16.90
2014,07,07,12,54,16.90
2014,07,07,12,55,16.90
2014,07,07,12,56,16.80
2014,07,07,12,57,16.90
2014,07,07,12,58,16.90
2014,07,07,12,59,16.90
2014,07,07,13,00,17.00
2014,07,07,13,01,17.00
2014,07,07,13,02,17.00
2014,07,07,13,03,17.00
2014,07,07,13,04,17.10
2014,07,07,13,05,17.20
2014,07,07,13,06,17.40
2014,07,07,13,07,17.50
2014,07,07,13,08,17.50
2014,07,07,13,09,17.60
2014,07,07,13,10,17.50
2014,07,07,13,11,17.50
2014,07,07,13,12,17.50
2014,07,07,13,13,17.50
2014,07,07,13,14,17.60
2014,07,07,13,15,17.60
2014,07,07,13,16,17.60
2014,07,07,13,17,17.60
2014,07,07,13,18,17.70
2014,07,07,13,19,17.70
2014,07,07,13,20,17.70
2014,07,07,13,21,17.70
2014,07,07,13,22,17.70
2014,07,07,13,23,17.60
2014,07,07,13,24,17.60
2014,07,07,13,25,17.50
2014,07,07,13,26,17.50
2014,07,07,13,27,17.50
2014,07,07,13,28,17.50
2014,07,07,13,29,17.60
2014,07,07,13,30,17.60
2014,07,07,13,31,17.70
2014,07,07,13,32,17.80
2014,07,07,13,33,17.80
2014,07,07,13,34,17.90
2014,07,07,13,35,17.90
2014,07,07,13,36,17.90
2014,07,07,13,37,17.90
2014,07,07,13,38,17.90
2014,07,07,13,39,17.80
2014,07,07,13,40,17.80
2014,07,07,13,41,17.80
2014,07,07,13,42,17.70
2014,07,07,13,43,17.70
2014,07,07,13,44,17.70
2014,07,07,13,45,17.70
2014,07,07,13,46,17.60
2014,07,07,13,47,17.60
2014,07,07,13,48,17.60
2014,07,07,13,49,17.50
2014,07,07,13,50,17.50
2014,07,07,13,51,17.50
2014,07,07,13,52,17.60
2014,07,07,13,53,17.60
2014,07,07,13,54,17.60
2014,07,07,13,55,17.70
2014,07,07,13,56,17.70
2014,07,07,13,57,17.70
2014,07,07,13,58,17.80
2014,07,07,13,59,17.90
2014,07,07,14,00,18.00
2014,07,07,14,01,18.10
2014,07,07,14,02,18.20
2014,07,07,14,03,18.20
2014,07,07,14,04,18.30
2014,07,07,14,05,18.30
2014,07,07,14,06,18.30
2014,07,07,14,07,18.30
2014,07,07,14,08,18.20
2014,07,07,14,09,18.20
2014,07,07,14,10,18.10
2014,07,07,14,11,18.00
2014,07,07,14,12,18.10
2014,07,07,14,13,18.10
2014,07,07,14,14,18.10
2014,07,07,14,15,18.10
2014,07,07,14,16,18.20
2014,07,07,14,17,18.10
2014,07,07,14,18,18.10
2014,07,07,14,19,18.00
2014,07,07,14,20,18.00
2014,07,07,14,21,18.00
2014,07,07,14,22,17.90
2014,07,07,14,23,17.90
2014,07,07,14,24,17.90
2014,07,07,14,25,17.90
2014,07,07,14,26,17.90
2014,07,07,14,27,17.90
2014,07,07,14,28,17.90
2014,07,07,14,29,18.00
2014,07,07,14,30,18.00
2014,07,07,14,31,18.10
2014,07,07,14,32,18.10
2014,07,07,14,33,18.20
2014,07,07,14,34,18.20
2014,07,07,14,35,18.20
2014,07,07,14,36,18.10
2014,07,07,14,37,18.00
2014,07,07,14,38,17.90
2014,07,07,14,39,17.80
2014,07,07,14,40,17.80
2014,07,07,14,41,17.80
2014,07,07,14,42,17.70
2014,07,07,14,43,17.80
2014,07,07,14,44,17.80
2014,07,07,14,45,17.90
2014,07,07,14,46,18.00
2014,07,07,14,47,18.10
2014,07,07,14,48,18.10
2014,07,07,14,49,18.20
2014,07,07,14,50,18.30
2014,07,07,14,51,18.40
2014,07,07,14,52,18.40
2014,07,07,14,53,18.50
2014,07,07,14,54,18.60
2014,07,07,14,55,18.70
2014,07,07,14,56,18.80
2014,07,07,14,57,18.80
2014,07,07,14,58,18.90
2014,07,07,14,59,19.00
2014,07,07,15,00,19.10
2014,07,07,15,01,19.20
2014,07,07,15,02,19.20
2014,07,07,15,03,19.20
2014,07,07,15,04,19.30
2014,07,07,15,05,19.30
2014,07,07,15,06,19.40
2014,07,07,15,07,19.40
2014,07,07,15,08,19.50
2014,07,07,15,09,19.60
2014,07,07,15,10,19.60
2014,07,07,15,11,19.60
2014,07,07,15,12,19.60
2014,07,07,15,13,19.60
2014,07,07,15,14,19.60
2014,07,07,15,15,19.60
2014,07,07,15,16,19.60
2014,07,07,15,17,19.70
2014,07,07,15,18,19.70
2014,07,07,15,19,19.70
2014,07,07,15,20,19.70
2014,07,07,15,21,19.70
2014,07,07,15,22,19.70
2014,07,07,15,23,19.70
2014,07,07,15,24,19.80
2014,07,07,15,25,19.80
2014,07,07,15,26,19.80
2014,07,07,15,27,19.80
2014,07,07,15,28,19.80
2014,07,07,15,29,19.80
2014,07,07,15,30,19.80
2014,07,07,15,31,19.80
2014,07,07,15,32,19.80
2014,07,07,15,33,19.70
2014,07,07,15,34,19.60
2014,07,07,15,35,19.50
2014,07,07,15,36,19.40
2014,07,07,15,37,19.30
2014,07,07,15,38,19.20
2014,07,07,15,39,19.20
2014,07,07,15,40,19.20
2014,07,07,15,41,19.20
2014,07,07,15,42,19.20
2014,07,07,15,43,19.20
2014,07,07,15,44,19.20
2014,07,07,15,45,19.20
2014,07,07,15,46,19.30
2014,07,07,15,47,19.30
2014,07,07,15,48,19.30
2014,07,07,15,49,19.30
2014,07,07,15,50,19.30
2014,07,07,15,51,19.20
2014,07,07,15,52,19.20
2014,07,07,15,53,19.20
2014,07,07,15,54,19.20
2014,07,07,15,55,19.20
2014,07,07,15,56,19.20
2014,07,07,15,57,19.20
2014,07,07,15,58,19.20
2014,07,07,15,59,19.20
2014,07,07,16,00,19.10
2014,07,07,16,01,19.00
2014,07,07,16,02,18.90
2014,07,07,16,03,18.80
2014,07,07,16,04,18.80
2014,07,07,16,05,18.70
2014,07,07,16,06,18.60
2014,07,07,16,07,18.60
2014,07,07,16,08,18.50
2014,07,07,16,09,18.50
2014,07,07,16,10,18.50
2014,07,07,16,11,18.50
2014,07,07,16,12,18.60
2014,07,07,16,13,18.60
2014,07,07,16,14,18.70
2014,07,07,16,15,18.70
2014,07,07,16,16,18.80
2014,07,07,16,17,18.80
2014,07,07,16,18,18.90
2014,07,07,16,19,19.00
2014,07,07,16,20,19.10
2014,07,07,16,21,19.10
2014,07,07,16,22,19.20
2014,07,07,16,23,19.20
2014,07,07,16,24,19.20
2014,07,07,16,25,19.30
2014,07,07,16,26,19.30
2014,07,07,16,27,19.40
2014,07,07,16,28,19.40
2014,07,07,16,29,19.50
2014,07,07,16,30,19.50
2014,07,07,16,31,19.60
2014,07,07,16,32,19.60
2014,07,07,16,33,19.70
2014,07,07,16,34,19.70
2014,07,07,16,35,19.80
2014,07,07,16,36,19.80
2014,07,07,16,37,19.90
2014,07,07,16,38,19.90
2014,07,07,16,39,19.90
2014,07,07,16,40,20.00
2014,07,07,16,41,20.10
2014,07,07,16,42,20.10
2014,07,07,16,43,20.10
2014,07,07,16,44,20.00
2014,07,07,16,45,20.00
2014,07,07,16,46,20.10
2014,07,07,16,47,20.10
2014,07,07,16,48,20.10
2014,07,07,16,49,20.00
2014,07,07,16,50,20.10
2014,07,07,16,51,20.10
2014,07,07,16,52,20.10
2014,07,07,16,53,20.10
2014,07,07,16,54,20.20
2014,07,07,16,55,20.20
2014,07,07,16,56,20.20
2014,07,07,16,57,20.20
2014,07,07,16,58,20.20
2014,07,07,16,59,20.20
2014,07,07,17,00,20.20
2014,07,07,17,01,20.20
2014,07,07,17,02,20.20
2014,07,07,17,03,20.20
2014,07,07,17,04,20.20
2014,07,07,17,05,20.30
2014,07,07,17,06,20.30
2014,07,07,17,07,20.30
2014,07,07,17,08,20.40
2014,07,07,17,09,20.40
2014,07,07,17,10,20.40
2014,07,07,17,11,20.30
2014,07,07,17,12,20.30
2014,07,07,17,13,20.30
2014,07,07,17,14,20.20
2014,07,07,17,15,20.20
2014,07,07,17,16,20.20
2014,07,07,17,17,20.10
2014,07,07,17,18,20.10
2014,07,07,17,19,20.00